EW0591 Weather Reports


Display with metric or nautical units.
time (UTC)temp
F
wind
direction
speed
MPH
gust
MPH
rain 1hr
in
rain 24hr
in
rain mn
in
humidity
%
barometer
mb
20260510070246 42 222 0.0 0.0 0.00 0.00 0.00 90 1028.0
20260510065741 42 244 0.0 0.0 0.00 0.00 0.00 89 1027.9
20260510065238 41 245 1.0 1.0 0.00 0.00 0.00 89 1028.0
20260510064734 42 238 0.0 1.0 0.00 0.00 0.00 88 1027.9
20260510064232 42 221 0.0 0.0 0.00 0.00 0.00 87 1027.8
20260510063728 43 214 0.0 0.0 0.00 0.00 0.00 87 1027.9
20260510063225 42 178 1.0 1.0 0.00 0.00 0.00 87 1028.1
20260510062721 43 194 1.0 2.0 0.00 0.00 0.00 87 1028.0
20260510062217 43 195 1.0 1.0 0.00 0.00 0.00 86 1027.9
20260510061713 43 197 1.0 1.0 0.00 0.00 0.00 86 1028.1
20260510061210 44 214 0.0 0.0 0.00 0.00 0.00 83 1027.9
20260510060706 44 200 0.0 0.0 0.00 0.00 0.00 84 1028.0
20260510060203 44 247 0.0 0.0 0.00 0.00 0.00 83 1027.8
20260510055659 44 207 0.0 0.0 0.00 0.00 0.00 82 1027.8
20260510055157 45 185 0.0 0.0 0.00 0.00 0.00 81 1027.9
20260510054653 45 240 0.0 0.0 0.00 0.00 0.00 80 1027.6
20260510054149 45 207 0.0 0.0 0.00 0.00 0.00 80 1027.6
20260510053648 46 216 0.0 0.0 0.00 0.00 0.00 78 1027.6
20260510053145 45 185 0.0 1.0 0.00 0.00 0.00 78 1027.6
20260510052641 46 241 0.0 0.0 0.00 0.00 0.00 79 1027.3
20260510052137 46 236 0.0 0.0 0.00 0.00 0.00 77 1027.6
20260510051633 47 230 0.0 0.0 0.00 0.00 0.00 75 1027.5
20260510051130 47 208 0.0 0.0 0.00 0.00 0.00 74 1027.3
20260510050627 48 201 1.0 1.0 0.00 0.00 0.00 70 1027.4
20260510050124 47 238 0.0 0.0 0.00 0.00 0.00 75 1027.3
20260510045621 47 199 0.0 0.0 0.00 0.00 0.00 76 1027.4
20260510045117 48 267 0.0 0.0 0.00 0.00 0.00 75 1027.3
20260510044613 47 237 0.0 0.0 0.00 0.00 0.00 77 1027.3
20260510044111 47 229 0.0 0.0 0.00 0.00 0.00 74 1027.3
20260510043606 48 221 0.0 0.0 0.00 0.00 0.00 74 1027.0
20260510043103 48 256 0.0 0.0 0.00 0.00 0.00 73 1027.2
20260510042601 48 231 0.0 0.0 0.00 0.00 0.00 72 1027.2
20260510042057 49 263 0.0 0.0 0.00 0.00 0.00 70 1027.2
20260510041554 50 280 0.0 0.0 0.00 0.00 0.00 70 1027.1
20260510041051 50 195 0.0 0.0 0.00 0.00 0.00 69 1026.8
20260510040548 49 219 0.0 0.0 0.00 0.00 0.00 71 1026.6
20260510040044 50 209 0.0 0.0 0.00 0.00 0.00 70 1026.9
20260510035540 50 227 0.0 0.0 0.00 0.00 0.00 70 1026.5
20260510035040 51 298 0.0 1.0 0.00 0.00 0.00 69 1026.6
20260510034539 51 214 0.0 0.0 0.00 0.00 0.00 68 1026.5
20260510034035 52 216 0.0 0.0 0.00 0.00 0.00 67 1026.4
20260510033531 52 230 0.0 0.0 0.00 0.00 0.00 64 1026.4
20260510033029 54 233 0.0 0.0 0.00 0.00 0.00 65 1026.5
20260510032525 55 217 0.0 0.0 0.00 0.00 0.00 59 1026.2
20260510032020 53 182 0.0 0.0 0.00 0.00 0.00 64 1026.2
20260510031516 54 139 0.0 0.0 0.00 0.00 0.00 64 1026.2
20260510031012 55 212 0.0 0.0 0.00 0.00 0.00 66 1026.2
20260510030508 57 167 0.0 0.0 0.00 0.00 0.00 55 1026.0
20260510030005 56 186 0.0 0.0 0.00 0.00 0.00 57 1026.1
20260510025502 57 282 0.0 0.0 0.00 0.00 0.00 61 1026.0
20260510025000 57 249 0.0 0.0 0.00 0.00 0.00 58 1025.9
20260510024456 58 250 0.0 0.0 0.00 0.00 0.00 60 1026.0
20260510023952 58 207 0.0 0.0 0.00 0.00 0.00 56 1025.9
20260510023448 59 241 0.0 0.0 0.00 0.00 0.00 58 1025.9
20260510022945 60 242 0.0 0.0 0.00 0.00 0.00 57 1025.8
20260510022445 61 246 0.0 0.0 0.00 0.00 0.00 53 1026.0
20260510021944 62 250 0.0 0.0 0.00 0.00 0.00 51 1025.8
20260510021442 62 255 0.0 0.0 0.00 0.00 0.00 49 1025.5
20260510020938 63 293 1.0 1.0 0.00 0.00 0.00 46 1025.5
20260510020433 64 260 0.0 1.0 0.00 0.00 0.00 45 1025.8
20260510015929 66 234 0.0 0.0 0.00 0.00 0.00 46 1025.5
20260510015425 67 216 0.0 0.0 0.00 0.00 0.00 42 1025.4
20260510014920 67 211 0.0 0.0 0.00 0.00 0.00 39 1025.5
20260510014418 67 191 0.0 1.0 0.00 0.00 0.00 36 1025.2
20260510013914 67 166 2.0 2.0 0.00 0.00 0.00 35 1025.4
20260510013409 67 184 2.0 2.0 0.00 0.00 0.00 36 1025.4
20260510012905 68 185 3.0 3.0 0.00 0.00 0.00 37 1025.5
20260510012400 69 184 3.0 3.0 0.00 0.00 0.00 34 1025.4
20260510011854 70 192 2.0 2.0 0.00 0.00 0.00 32 1025.3
20260510011350 69 160 3.0 3.0 0.00 0.00 0.00 35 1025.3
20260510010846 70 171 5.0 6.0 0.00 0.00 0.00 31 1025.3
20260510010344 70 138 7.0 8.0 0.00 0.00 0.00 30 1025.2
20260510005840 71 164 3.0 3.0 0.00 0.00 0.00 33 1025.3
20260510005337 72 181 3.0 3.0 0.00 0.00 0.00 30 1025.4
20260510004834 72 226 1.0 2.0 0.00 0.00 0.00 30 1025.3
20260510004332 71 198 4.0 6.0 0.00 0.00 0.00 31 1025.2
20260510003829 72 172 3.0 3.0 0.00 0.00 0.00 29 1025.4
20260510003326 72 43 1.0 1.0 0.00 0.00 0.00 29 1025.3
20260510002825 73 252 2.0 2.0 0.00 0.00 0.00 29 1025.3
20260510002322 74 240 1.0 1.0 0.00 0.00 0.00 30 1025.4
20260510001819 73 238 0.0 0.0 0.00 0.00 0.00 32 1025.4
20260510001317 73 226 1.0 2.0 0.00 0.00 0.00 31 1025.4
20260510000812 73 119 1.0 2.0 0.00 0.00 0.00 30 1025.5
20260510000311 72 260 2.0 2.0 0.00 0.00 0.00 28 1025.1
20260509235808 72 67 1.0 2.0 0.00 0.00 0.00 33 1025.7
20260509235306 71 285 1.0 1.0 0.00 0.00 0.00 31 1025.7
20260509234800 70 265 0.0 0.0 0.00 0.00 0.00 32 1025.3
20260509234256 72 55 2.0 3.0 0.00 0.00 0.00 29 1025.4
20260509233755 71 178 3.0 5.0 0.00 0.00 0.00 31 1025.4
20260509233252 71 151 4.0 5.0 0.00 0.00 0.00 29 1025.5
20260509232748 72 262 0.0 0.0 0.00 0.00 0.00 30 1025.5
20260509232245 72 188 2.0 2.0 0.00 0.00 0.00 30 1025.8
20260509231741 71 134 0.0 1.0 0.00 0.00 0.00 31 1025.7
20260509231239 72 352 2.0 2.0 0.00 0.00 0.00 33 1025.5
20260509230736 71 115 1.0 1.0 0.00 0.00 0.00 33 1025.8
20260509230233 70 324 4.0 5.0 0.00 0.00 0.00 32 1025.7
20260509225728 71 57 3.0 3.0 0.00 0.00 0.00 30 1025.8
20260509225224 70 330 4.0 6.0 0.00 0.00 0.00 32 1025.8
20260509224720 71 287 1.0 2.0 0.00 0.00 0.00 33 1025.8
20260509224217 70 335 5.0 6.0 0.00 0.00 0.00 33 1026.2
20260509223714 71 330 3.0 3.0 0.00 0.00 0.00 32 1026.3
20260509223211 69 290 2.0 2.0 0.00 0.00 0.00 31 1026.2
20260509222708 68 345 2.0 2.0 0.00 0.00 0.00 34 1026.2
20260509222203 68 165 0.0 1.0 0.00 0.00 0.00 33 1026.0
20260509221659 69 241 1.0 2.0 0.00 0.00 0.00 31 1026.2
20260509221155 69 205 2.0 2.0 0.00 0.00 0.00 33 1026.3
20260509220652 70 226 0.0 0.0 0.00 0.00 0.00 32 1026.4
20260509220148 71 209 4.0 5.0 0.00 0.00 0.00 33 1026.4
20260509215644 70 349 4.0 5.0 0.00 0.00 0.00 33 1026.3
20260509215141 70 233 0.0 0.0 0.00 0.00 0.00 32 1026.4
20260509214638 71 166 1.0 2.0 0.00 0.00 0.00 31 1026.3
20260509214135 71 272 2.0 3.0 0.00 0.00 0.00 32 1026.5
20260509213631 71 237 3.0 5.0 0.00 0.00 0.00 34 1026.4
20260509213127 71 6 3.0 6.0 0.00 0.00 0.00 35 1026.6
20260509212625 72 173 6.0 7.0 0.00 0.00 0.00 31 1026.8
20260509212122 71 239 1.0 1.0 0.00 0.00 0.00 35 1026.4
20260509211618 71 72 4.0 5.0 0.00 0.00 0.00 33 1026.3
20260509211114 70 165 3.0 5.0 0.00 0.00 0.00 33 1026.3
20260509210611 69 190 7.0 8.0 0.00 0.00 0.00 33 1026.8
20260509210108 69 55 2.0 3.0 0.00 0.00 0.00 35 1026.4
20260509205602 69 112 5.0 7.0 0.00 0.00 0.00 33 1026.8
20260509205057 70 170 3.0 5.0 0.00 0.00 0.00 33 1026.8
20260509204554 70 148 3.0 5.0 0.00 0.00 0.00 33 1026.6
20260509204051 69 142 7.0 7.0 0.00 0.00 0.00 33 1026.6
20260509203546 69 211 0.0 1.0 0.00 0.00 0.00 34 1026.9
20260509203044 69 262 5.0 6.0 0.00 0.00 0.00 34 1026.8
20260509202539 69 222 3.0 3.0 0.00 0.00 0.00 35 1026.6
20260509202035 69 182 4.0 5.0 0.00 0.00 0.00 37 1026.8
20260509201530 68 71 2.0 2.0 0.00 0.00 0.00 35 1027.0
20260509201028 67 10 6.0 8.0 0.00 0.00 0.00 35 1027.0
20260509200527 68 127 4.0 5.0 0.00 0.00 0.00 35 1026.8
20260509200024 68 221 4.0 5.0 0.00 0.00 0.00 34 1027.2
20260509195520 67 139 1.0 2.0 0.00 0.00 0.00 36 1027.0
20260509195019 68 185 5.0 6.0 0.00 0.00 0.00 35 1027.0
20260509194515 68 161 6.0 8.0 0.00 0.00 0.00 35 1027.0
20260509194012 68 193 5.0 6.0 0.00 0.00 0.00 35 1027.0
20260509193507 68 216 0.0 1.0 0.00 0.00 0.00 38 1027.0
20260509193004 69 197 1.0 1.0 0.00 0.00 0.00 34 1027.2
20260509192500 67 271 1.0 1.0 0.00 0.00 0.00 39 1027.2
20260509191955 68 58 3.0 5.0 0.00 0.00 0.00 36 1027.2
20260509191450 68 146 3.0 3.0 0.00 0.00 0.00 34 1027.3
20260509190946 68 202 0.0 0.0 0.00 0.00 0.00 34 1027.3
20260509190443 68 356 2.0 3.0 0.00 0.00 0.00 39 1027.4
20260509185941 66 145 0.0 1.0 0.00 0.00 0.00 39 1027.4
20260509185438 66 241 0.0 1.0 0.00 0.00 0.00 37 1027.3
20260509184935 66 259 2.0 2.0 0.00 0.00 0.00 41 1027.4
20260509184433 66 214 0.0 0.0 0.00 0.00 0.00 36 1027.5
20260509183929 66 11 3.0 3.0 0.00 0.00 0.00 37 1027.5
20260509183423 66 55 2.0 3.0 0.00 0.00 0.00 37 1027.4
20260509182920 67 127 2.0 2.0 0.00 0.00 0.00 35 1027.8
20260509182416 66 251 0.0 0.0 0.00 0.00 0.00 35 1027.5
20260509181914 66 143 1.0 2.0 0.00 0.00 0.00 39 1027.5
20260509181412 65 74 3.0 5.0 0.00 0.00 0.00 38 1027.6
20260509180909 65 200 1.0 1.0 0.00 0.00 0.00 37 1027.5
20260509180404 65 161 6.0 8.0 0.00 0.00 0.00 36 1027.8
20260509175901 66 161 3.0 3.0 0.00 0.00 0.00 35 1027.4
20260509175357 66 233 1.0 2.0 0.00 0.00 0.00 37 1027.5
20260509174854 65 268 1.0 1.0 0.00 0.00 0.00 36 1027.6
20260509174350 65 99 1.0 2.0 0.00 0.00 0.00 35 1027.6
20260509173846 65 196 0.0 0.0 0.00 0.00 0.00 41 1027.6
20260509173341 64 334 2.0 2.0 0.00 0.00 0.00 37 1027.8
20260509172837 64 152 2.0 2.0 0.00 0.00 0.00 40 1027.6
20260509172334 63 284 1.0 1.0 0.00 0.00 0.00 38 1027.5
20260509171830 64 169 5.0 6.0 0.00 0.00 0.00 38 1027.8
20260509171326 63 183 2.0 3.0 0.00 0.00 0.00 38 1027.6
20260509170823 63 63 3.0 3.0 0.00 0.00 0.00 38 1027.6
20260509170318 62 185 6.0 8.0 0.00 0.00 0.00 38 1027.8
20260509165818 63 208 1.0 2.0 0.00 0.00 0.00 39 1027.9
20260509165313 63 187 3.0 5.0 0.00 0.00 0.00 39 1027.9
20260509164809 63 299 0.0 1.0 0.00 0.00 0.00 39 1027.6
20260509164306 63 188 3.0 5.0 0.00 0.00 0.00 41 1028.0
20260509163802 63 95 2.0 2.0 0.00 0.00 0.00 40 1028.1
20260509163259 61 355 5.0 5.0 0.00 0.00 0.00 42 1028.1
20260509162758 60 184 0.0 1.0 0.00 0.00 0.00 43 1028.1
20260509162251 60 59 2.0 2.0 0.00 0.00 0.00 43 1028.2
20260509161747 60 355 3.0 5.0 0.00 0.00 0.00 47 1027.9
20260509161243 60 296 2.0 2.0 0.00 0.00 0.00 43 1028.0
20260509160739 59 1 4.0 6.0 0.00 0.00 0.00 47 1028.1
20260509160236 58 302 3.0 3.0 0.00 0.00 0.00 47 1027.8
20260509155731 58 336 2.0 3.0 0.00 0.00 0.00 45 1028.0
20260509155227 58 333 5.0 6.0 0.00 0.00 0.00 45 1028.0
20260509154723 58 61 2.0 3.0 0.00 0.00 0.00 44 1028.2
20260509154220 58 41 3.0 3.0 0.00 0.00 0.00 48 1028.2
20260509153718 58 324 2.0 3.0 0.00 0.00 0.00 47 1028.3
20260509153214 57 324 3.0 3.0 0.00 0.00 0.00 47 1028.0
20260509152710 57 346 2.0 2.0 0.00 0.00 0.00 49 1028.1
20260509152207 56 340 3.0 3.0 0.00 0.00 0.00 52 1027.9
20260509151704 56 37 0.0 1.0 0.00 0.00 0.00 55 1028.0
20260509151201 55 335 4.0 5.0 0.00 0.00 0.00 51 1028.1
20260509150659 54 314 2.0 2.0 0.00 0.00 0.00 51 1028.1
20260509150157 54 325 2.0 2.0 0.00 0.00 0.00 56 1028.0
20260509145653 53 201 0.0 0.0 0.00 0.00 0.00 59 1027.9
20260509145148 53 333 3.0 3.0 0.00 0.00 0.00 59 1027.9
20260509144645 52 284 0.0 0.0 0.00 0.00 0.00 57 1027.9
20260509144142 52 345 0.0 1.0 0.00 0.00 0.00 59 1028.1
20260509143639 52 319 1.0 2.0 0.00 0.00 0.00 61 1027.6
20260509143137 50 251 0.0 1.0 0.00 0.00 0.00 62 1028.0
20260509142632 50 321 1.0 2.0 0.00 0.00 0.00 64 1028.0
20260509142129 49 314 2.0 2.0 0.00 0.00 0.00 65 1028.0
20260509141624 48 257 0.0 0.0 0.00 0.00 0.00 66 1028.0
20260509141121 48 289 0.0 0.0 0.00 0.00 0.00 67 1028.0
20260509140618 47 313 2.0 2.0 0.00 0.00 0.00 69 1028.0
20260509140116 46 333 0.0 1.0 0.00 0.00 0.00 68 1027.8
20260509135613 46 239 4.0 5.0 0.00 0.00 0.00 72 1027.8
20260509135111 45 216 0.0 0.0 0.00 0.00 0.00 75 1027.5
20260509134607 43 326 3.0 5.0 0.00 0.00 0.00 77 1027.4
20260509134105 42 325 1.0 1.0 0.00 0.00 0.00 77 1027.6
20260509133602 41 270 0.0 1.0 0.00 0.00 0.00 80 1027.5
20260509133059 40 262 1.0 1.0 0.00 0.00 0.00 83 1027.4
20260509132557 39 199 0.0 0.0 0.00 0.00 0.00 83 1027.4
20260509132055 38 335 3.0 3.0 0.00 0.00 0.00 82 1027.4
20260509131551 37 234 0.0 0.0 0.00 0.00 0.00 83 1027.3
20260509131048 37 309 3.0 3.0 0.00 0.00 0.00 84 1027.0
20260509130544 37 278 2.0 2.0 0.00 0.00 0.00 84 1027.0
20260509130041 36 101 1.0 2.0 0.00 0.00 0.00 85 1026.9
20260509125537 36 191 0.0 0.0 0.00 0.00 0.00 86 1026.9
20260509125034 35 323 2.0 2.0 0.00 0.00 0.00 86 1026.9
20260509124530 34 207 0.0 0.0 0.00 0.00 0.00 86 1026.6
20260509124028 34 178 1.0 1.0 0.00 0.00 0.00 87 1026.6
20260509123526 35 311 4.0 5.0 0.00 0.00 0.00 86 1026.5
20260509123021 34 255 0.0 0.0 0.00 0.00 0.00 87 1026.5
20260509122518 34 245 0.0 0.0 0.00 0.00 0.00 87 1026.3
20260509122015 36 254 4.0 5.0 0.00 0.00 0.00 86 1026.4
20260509121512 35 156 0.0 0.0 0.00 0.00 0.00 86 1026.5
20260509121010 35 333 2.0 3.0 0.00 0.00 0.00 86 1026.4
20260509120508 35 239 0.0 0.0 0.00 0.00 0.00 86 1026.2
20260509120005 34 73 2.0 2.0 0.00 0.00 0.00 85 1026.3
20260509115502 35 216 1.0 1.0 0.00 0.00 0.00 83 1026.3
20260509115000 35 191 0.0 0.0 0.00 0.00 0.00 84 1026.2
20260509114458 35 281 1.0 1.0 0.00 0.00 0.00 82 1026.3
20260509113957 36 147 2.0 2.0 0.00 0.00 0.00 84 1026.3
20260509113454 35 350 3.0 3.0 0.00 0.00 0.00 83 1026.4
20260509112951 35 271 0.0 0.0 0.00 0.00 0.00 83 1026.0
20260509112448 36 190 0.0 0.0 0.00 0.00 0.00 83 1026.0
20260509111944 37 245 1.0 1.0 0.00 0.00 0.00 82 1026.3
20260509111442 38 107 1.0 1.0 0.00 0.00 0.00 83 1026.1
20260509110940 36 39 1.0 1.0 0.00 0.00 0.00 81 1025.9
20260509110435 37 202 0.0 1.0 0.00 0.00 0.00 81 1025.8
20260509105933 36 217 0.0 0.0 0.00 0.00 0.00 81 1026.1
20260509105432 38 208 1.0 2.0 0.00 0.00 0.00 79 1025.9
20260509104928 38 0 1.0 1.0 0.00 0.00 0.00 79 1026.1
20260509104425 39 123 0.0 0.0 0.00 0.00 0.00 78 1025.9
20260509103922 38 145 2.0 2.0 0.00 0.00 0.00 81 1025.9
20260509103420 39 242 3.0 3.0 0.00 0.00 0.00 79 1026.1
20260509102918 40 133 1.0 1.0 0.00 0.00 0.00 77 1025.5
20260509102415 39 197 1.0 1.0 0.00 0.00 0.00 81 1026.0
20260509101911 37 89 1.0 2.0 0.00 0.00 0.00 82 1025.8
20260509101407 39 237 0.0 1.0 0.00 0.00 0.00 80 1025.9
20260509100905 38 181 0.0 0.0 0.00 0.00 0.00 82 1025.8
20260509100402 39 184 4.0 5.0 0.00 0.00 0.00 80 1025.9
20260509095859 39 58 0.0 1.0 0.00 0.00 0.00 80 1025.9
20260509095356 38 239 0.0 0.0 0.00 0.00 0.00 79 1025.7
20260509094853 40 143 0.0 1.0 0.00 0.00 0.00 80 1025.7
20260509094349 39 1 1.0 1.0 0.00 0.00 0.00 79 1025.5
20260509093847 40 223 2.0 2.0 0.00 0.00 0.00 76 1025.8
20260509093344 39 170 1.0 1.0 0.00 0.00 0.00 75 1025.8
20260509092843 39 221 1.0 1.0 0.00 0.00 0.00 78 1025.5
20260509092340 40 221 0.0 0.0 0.00 0.00 0.00 76 1025.4
20260509091838 40 235 0.0 0.0 0.00 0.00 0.00 76 1025.7
20260509091335 40 188 0.0 0.0 0.00 0.00 0.00 77 1025.2
20260509090832 41 245 0.0 1.0 0.00 0.00 0.00 74 1025.4
20260509090329 42 126 0.0 1.0 0.00 0.00 0.00 69 1025.5
20260509085827 41 118 0.0 1.0 0.00 0.00 0.00 77 1025.3
20260509085324 41 258 1.0 1.0 0.00 0.00 0.00 76 1025.2
20260509084820 42 169 2.0 2.0 0.00 0.00 0.00 75 1025.2
20260509084317 42 61 1.0 1.0 0.00 0.00 0.00 71 1025.0
20260509083815 42 164 2.0 2.0 0.00 0.00 0.00 72 1025.0
20260509083311 44 211 0.0 0.0 0.00 0.00 0.00 65 1025.1
20260509082808 42 167 0.0 1.0 0.00 0.00 0.00 70 1025.0
20260509082307 44 240 1.0 2.0 0.00 0.00 0.00 72 1024.9
20260509081802 43 298 0.0 0.0 0.00 0.00 0.00 72 1024.9
20260509081259 46 197 0.0 0.0 0.00 0.00 0.00 66 1024.9
20260509080757 44 79 1.0 1.0 0.00 0.00 0.00 67 1024.7
20260509080254 46 219 2.0 2.0 0.00 0.00 0.00 69 1024.8
20260509075753 46 70 2.0 2.0 0.00 0.00 0.00 64 1024.5
20260509075250 45 226 0.0 0.0 0.00 0.00 0.00 63 1025.1
20260509074746 48 320 2.0 2.0 0.00 0.00 0.00 62 1024.7
20260509074244 48 232 0.0 0.0 0.00 0.00 0.00 58 1024.5
20260509073740 48 145 2.0 2.0 0.00 0.00 0.00 56 1024.7
20260509073237 48 261 0.0 0.0 0.00 0.00 0.00 59 1024.4
20260509072733 49 266 2.0 2.0 0.00 0.00 0.00 59 1024.3
20260509072230 48 91 1.0 1.0 0.00 0.00 0.00 57 1024.3
20260509071727 46 203 0.0 0.0 0.00 0.00 0.00 63 1024.3
20260509071224 49 235 0.0 0.0 0.00 0.00 0.00 63 1024.0
20260509070721 48 83 2.0 3.0 0.00 0.00 0.00 57 1024.1